Regional Weather Roundup
Issued by NWS Newport/Morehead, NC

Current Version | Previous Version | Graphics & Text | Print | Product List | Glossary Off
Versions: 1 2 3 4 5 6 7 8 9 10 11 12 13 14 15 16 17 18 19 20 21 22 23 24 25 26 27 28 29 30 31 32 33 34 35 36 37 38 39 40 41 42 43 44 45 46 47 48 49 50

883
ASUS42 KMHX 060025
RWRMHX
WEATHER ROUNDUP FOR EASTERN NORTH CAROLINA
NATIONAL WEATHER SERVICE NEWPORT/MOREHEAD CITY NC
800 PM EDT THU MAY 05 2016

NOTE: "FAIR" INDICATES FEW OR NO CLOUDS BELOW 12,000 FEET
WITH NO SIGNIFICANT WEATHER AND/OR OBSTRUCTIONS TO VISIBILITY

NCZ015>017-031-032-045>047-102-103-060100-
NORTH COAST

CITY           SKY/WX    TMP DP  RH WIND       PRES   REMARKS
EDENTON        LGT RAIN  53  53 100 NW5       29.64R
ELIZABETH CITY LGT RAIN  51  49  92 N16       29.59F
KITTY HAWK     LGT RAIN  50  49  97 N14G25    29.57R
MANTEO         LGT RAIN  50  50 100 N18G26    29.59R

$$

NCZ045>047-081-094-103-104-060100-
CENTRAL COAST

CITY           SKY/WX    TMP DP  RH WIND       PRES   REMARKS
FRISCO         CLOUDY    54  52  93 VRB7      29.58R
SWANQUARTER    NOT AVBL

$$

NCZ095-097-098-100-101-060100-
SOUTHERN COAST

CITY           SKY/WX    TMP DP  RH WIND       PRES   REMARKS
BEAUFORT       MOCLDY    56  53  90 N8        29.59R
CEDAR ISLAND   NOT AVBL
JACKSONVILLE   CLOUDY    56  52  86 NW8       29.61R
PINEY ISLAND   CLOUDY   N/A N/A N/A N13G22    29.57R
WILMINGTON     CLOUDY    59  46  62 NW10      29.63R


$$

NCZ011>013-027>030-043-044-078>080-089-090>093-098-060100-
COASTAL PLAIN

CITY           SKY/WX    TMP DP  RH WIND       PRES   REMARKS
AHOSKIE        RAIN      52  51  95 N9        29.62S
CLINTON        CLOUDY    55  49  81 NW3       29.64R
ELIZABETHTOWN  CLEAR     57  46  65 NW8       29.65R
GOLDSBORO      MOCLDY    57  57 100 N5        29.59R
GREENVILLE     CLOUDY    54  54 100 NE3       29.64R
HAVELOCK       CLOUDY    56  52  86 N9        29.61R
KENANSVILLE    CLOUDY    56  49  76 W7        29.63R
KINSTON        MOCLDY    54  54 100 CALM      29.61R
NEW BERN       CLOUDY    56  53  90 CALM      29.62R
RICHLANDS      CLOUDY    55  54  94 CALM      29.63R
ROCKY MOUNT    CLOUDY    53  52  96 NW6       29.61S FOG
WASHINGTON     DRIZZLE   52  50  94 CALM      29.60R
WHITEVILLE     NOT AVBL

$$

AMZ130-135-150-152-154-156-158-170-250-252-270-ANZ085-086-088-633-658-670-060100-
MARINE OBSERVATIONS

STATION/POSITION TIME  TEMP    WIND        PRES    WAVE   SWELL
                       AIR SEA DIR/SP/G            HT/PER HT/PER
                 (UTC) (F)     (DEG/KT/KT) (MB)    (FT/S) (FT/S)
CHESAPEAKE LIGHT 0000   50      20/ 22/ 24 1002.9
64 E VA BEACH    2350   50 51   20/ 21/ 27  999.5    7/ 6
DUCK             0000      61   10/ 23/ 29 1000.5
2 E DUCK         2311      60                N/A     7/ 7
OREGON INLET     2300      61              1000.2
13E OREGON INLT  0000      55                N/A     8/ 7   3/15
HATTERAS CG      0000      68  340/ 20/ 27 1001.3
DIAMOND BUOY     2350   57 76   10/ 21/ 27 1000.3    6/ 7   2/13
CAPE LOOKOUT     0000   57      10/ 12/ 15 1001.6
BEAUFORT LAB     0000      67   20/  9/ 12 1001.2
30 SE NEW RVR IN 2325      73                N/A     6/ 5
27 SE WRIGHTSVLE 0008   62 72  340/ 14/ 19 1001.9
5 SE WRIGHTSVLE  0008   62 69  320/ 14/ 17 1003.4
225 S CAPE HAT   2350   71 74  260/ 25/ 31 1002.6   10/ 8
41 SE CHARLESTON 2350   68 74  310/ 19/ 23 1003.8    5/ 7

$$




USA.gov is the U.S. government's official web portal to all federal, state and local government web resources and services.